OCEANSAT 2

Satellite information

Favourite Embed

Satellite Type and Status

PAYLOADIN ORBIT

Key statistics

Satellite OCEANSAT 2 at a glance.

Uptime

5926

Days in orbit

Revolutions

≈ 14.0

Per day

Orbit

SSO

Sun Synchronous Orbit

Inclination

98.2

Latest

Satellite identification and parameters

Extended collection of information and parameters for OCEANSAT 2.

Object identification

Identified? True

Debris? False

Object name: OCEANSAT 2

International designator: 2009-051A

Object number (NORAD): 35931

Object ID (CCSDS): 35931

Country: INDIA (IND)

Current information (Y/N): Y

RCS size: LARGE

Orbital parameters

Period: 102.885 minutes

Inclination: 98.2222 deg

SMA: 7273.233 km

Apoapsis: 906.88 km

Periapsis: 883.316 km

RAAN: 348.1313 deg

Eccentricy: 0.0016199

Argument of periapsis: 42.7512 deg

Mean anomaly: 317.4912 deg

Mean motion: 13.99624463 rev/day

Mean motion (dot): -0.00000136 rev/day2

B* drag term: -0.000067474145 1/REarth

Two-line elements (TLE)

Creation date: Dec. 14, 2025, 3:07 a.m.

Reference frame: TEME

Reference center: EARTH

Epoch: Dec. 13, 2025, 2:52 p.m. UTC

TLE line 0: 0 OCEANSAT 2

TLE line 1: 1 35931U 09051A 25347.61989453 -.00000136 00000-0 -67474-4 0 9996

TLE line 2: 2 35931 98.2222 348.1313 0016199 42.7512 317.4912 13.99624463853378

Live tracking on map

Real-time ground track for satellite OCEANSAT 2.

In-orbit conjunctions

There are no conjunctions computed for OCEANSAT 2, at the moment. Check back to stay up to date, as we update our databases every day.

Go to all conjunctions

Associated space launch

Oceansat-2 is an earth observation and oceanography satellite operated by ISRO.

OCEANSAT 2 was lifted into orbit during the mission ‘PSLV | Oceansat-2’, on board a PSLV space rocket.

The launch took place on Sept. 23, 2009, 6:21 a.m. from Satish Dhawan Space Centre First Launch Pad.

For more information about the launch, click the button.

Launch to space PSLV | Oceansat-2
PSLV | Oceansat-2

Agency: N/A

Status: Launch Successful

Launch date: Sept. 23, 2009, 6:21 a.m. UTC

Rocket: PSLV

Launch pad: Satish Dhawan Space Centre First Launch Pad

Location: Satish Dhawan Space Centre, India

...

Latest news about this satellite

There are no fresh news available about this satellite. Check back as we update our databases every day.


Newsletter sign-up

Weekly statistics, charts and insights to help you stay on top of the space industry.